Weather History for Cut Bank, MT

Change the Weather History Date:

Tuesday, February 12, 2013

  Actual Average Record
Temperature  
Mean Temperature 34 °F 24 °F  
Max Temperature 43 °F 35 °F 57 °F (1934)
Min Temperature 24 °F 13 °F -32 °F (1936)
Degree Days  
Heating Degree Days 31 41  
Month to date heating degree days 359 502  
Since 1 July heating degree days 5102 5420  
Cooling Degree Days 0 0  
Month to date cooling degree days 0 0  
Year to date cooling degree days 0 0  
Moisture  
Dew Point 23 °F    
Average Humidity 59    
Maximum Humidity 69    
Minimum Humidity 49    
Precipitation  
Precipitation 0.00 in 0.01 in 0.22 in (1938)
Month to date precipitation T 0.08  
Year to date precipitation 0.42 0.28  
Snow  
Snow 0.00 in - - ()
Snow Depth 1.00 in    
Sea Level Pressure  
Sea Level Pressure 29.93 in    
Wind  
Wind Speed 26 mph (WSW)    
Max Wind Speed 54 mph    
Max Gust Speed 62 mph    
Visibility 10 miles    
Events      
T = Trace of Precipitation, MM = Missing Value Source: NWS Daily Summary

Daily Weather History Graph

Daily Weather History Graph

Search for Another Location

Airport:

Trip Planner

Search our weather history database for the weather conditions in past years. The results will help you decide how hot, cold, wet, or windy it might be!

Date:

Astronomy

Feb. 12, 2013 Rise Set
Actual Time 7:41 AM MST 5:46 PM MST
Civil Twilight 7:09 AM MST 6:19 PM MST
Nautical Twilight 6:32 AM MST 6:56 PM MST
Astronomical Twilight 5:55 AM MST 7:32 PM MST
Moon 8:23 AM MST (2/12) 9:11 PM MST (2/12)
Length of Visible Light 11h 10m
Length of Day
10h 04m
Waxing Crescent, 8% of the Moon is Illuminated
Feb 12
Waxing Crescent
Feb 17
First Quarter
Feb 25
Full
Mar 4
Last Quarter
Mar 11
New

Hourly Weather History & Observations

Time (MST) Temp. Windchill Dew Point Humidity Pressure Visibility Wind Dir Wind Speed Gust Speed Precip Events Conditions
12:56 AM 30.9 °F 19.1 °F 19.9 °F 64% 29.95 in 10.0 mi WSW 18.4 mph 25.3 mph N/A   Clear
1:56 AM 32.0 °F 18.9 °F 21.0 °F 64% 29.95 in 10.0 mi West 24.2 mph - N/A   Unknown
2:56 AM 32.0 °F 19.8 °F 21.0 °F 64% 29.96 in 10.0 mi West 20.7 mph - N/A   Clear
3:56 AM 32.0 °F 19.8 °F 21.0 °F 64% 29.97 in 10.0 mi West 20.7 mph - N/A   Clear
4:56 AM 28.9 °F 18.6 °F 19.9 °F 69% 29.99 in 10.0 mi West 12.7 mph - N/A   Unknown
5:56 AM 30.0 °F 18.3 °F 21.0 °F 69% 30.01 in 10.0 mi West 17.3 mph - N/A   Clear
6:56 AM 30.9 °F 19.1 °F 21.0 °F 67% 30.01 in 10.0 mi West 18.4 mph - N/A   Clear
7:56 AM 32.0 °F 20.1 °F 21.0 °F 64% 30.02 in 10.0 mi West 19.6 mph - N/A   Clear
8:56 AM 35.1 °F 23.8 °F 23.0 °F 61% 30.02 in 10.0 mi West 20.7 mph 27.6 mph N/A   Clear
9:56 AM 39.9 °F 30.0 °F 24.1 °F 53% 30.01 in 10.0 mi West 21.9 mph 31.1 mph N/A   Clear
10:56 AM 39.9 °F 29.0 °F 25.0 °F 55% 30.00 in 10.0 mi West 26.5 mph 34.5 mph N/A   Clear
11:56 AM 39.9 °F 28.2 °F 25.0 °F 55% 29.98 in 10.0 mi West 31.1 mph 38.0 mph N/A   Clear
12:56 PM 42.1 °F 30.4 °F 25.0 °F 51% 29.92 in 10.0 mi WSW 35.7 mph 44.9 mph N/A   Clear
1:56 PM 41.0 °F 28.5 °F 24.1 °F 51% 29.91 in 10.0 mi West 39.1 mph 46.0 mph N/A   Clear
2:56 PM 43.0 °F 31.5 °F 24.1 °F 47% 29.91 in 10.0 mi WSW 36.8 mph 42.6 mph N/A   Clear
3:56 PM 42.1 °F 31.3 °F 25.0 °F 51% 29.88 in 10.0 mi WSW 29.9 mph 40.3 mph N/A   Clear
4:56 PM 37.9 °F 26.6 °F 24.1 °F 57% 29.90 in 10.0 mi West 25.3 mph 35.7 mph N/A   Clear
5:56 PM 36.0 °F 22.4 °F 24.1 °F 62% 29.88 in 10.0 mi West 33.4 mph 48.3 mph N/A   Clear
6:56 PM 37.0 °F 22.6 °F 24.1 °F 59% 29.85 in 10.0 mi WSW 41.4 mph 51.8 mph N/A   Clear
7:56 PM 37.0 °F 23.7 °F 24.1 °F 59% 29.85 in 10.0 mi WSW 34.5 mph 43.7 mph N/A   Clear
8:56 PM 37.0 °F 24.1 °F 25.0 °F 62% 29.83 in 10.0 mi WSW 32.2 mph 38.0 mph N/A   Clear
9:56 PM 37.0 °F 24.1 °F 25.0 °F 62% 29.81 in 10.0 mi WSW 32.2 mph 46.0 mph N/A   Unknown
10:56 PM 36.0 °F 25.3 °F 24.1 °F 62% 29.84 in 10.0 mi West 19.6 mph 28.8 mph N/A   Clear
11:56 PM 37.0 °F 27.0 °F 24.1 °F 59% 29.82 in 10.0 mi WSW 18.4 mph 26.5 mph N/A   Clear